THOR ABLESTAR DEB, 409

Orbit data source: Space-Track

THOR ABLESTAR DEB, 409 is space debris in LEO originally from a launch on Thu, 29 Jun 1961 UTC launched from the Air Force Eastern Test Range (AFETR). Debris objects in space refer to the collection of defunct objects orbiting the Earth. Examples of debris include non-operational satellites, rocket bodies, and fragments generated from explosions, collisions, or faulty payload assembly.

Loading next visibility...
Identifier
409, 1961-015EJ
Orbit
LEO
Country
Flag of USUS
Related business
Manufacturer
Unknown
Mission
Spacecraft
Bus & Motor
Unknown
Mass
Unknown
Launch date (UTC)
1961-06-29 (65 years ago)
Launch vehicle
Unknown
Launch site
Air Force Eastern Test Range (AFETR)
Object type
Payload
Rocket body
Debris
Shape & HBR
Unknown shape, 0.1 m
Radar Cross Section
Medium (>0.1 m² and <1 m²)

Expand to show TLE details & history
Last TLE update: 13 hours ago

TLE from 13 hours ago
0 THOR ABLESTAR DEB
1 00409U 61015EJ  26174.83321475  .00000934  00000-0  39410-3 0  9995
2 00409  66.7135 332.2570 0062525 177.9466 182.1901 14.28994761342254
Epoch: 2026-06-23T19:59Z
TLE epoch observation values (Epoch: 2026-06-23T19:59:49.754Z)
Latitude
-0.00001°
Longitude
120.30058°
Altitude
842.023 km
Speed
7.409 km/s
True Right ascension
22h 09m 01s
True Declination
0° 00' 00"
Sunlit
Object was in daylight at epoch
Visualization orbit readout
Latitude
Unknown
Longitude
Unknown
Altitude
Unknown
Speed
Unknown
Apparent Right ascension
Unknown
Apparent Declination
Unknown
Sunlit
N/A
Visualization observer readout
Local Sidereal Time
19:40:52
Azimuth
Unknown
Elevation
Unknown
Doppler factor
Unknown
Orbital elements
Apogee altitude
838.307 km
Perigee altitude
748.626 km
Semi-major axis
7,171.604 km
Eccentricity
0.00625
Inclination
66.7135°
RAAN
332.257°
Arg. of periapsis
177.9466°
True anomaly
182.16293°
Mean anomaly
182.1901°
Eccentric anomaly
182.17649°
Mean motion
3.57371 °/min
Orbital period
100.74 mins
BSTAR
0.0003941
Loading maneuver chart data...
Computing Atmospheric mass density...

Documentation

Showing up to 5 results
|